Regional Weather Roundup
Issued by NWS

Home | Current Version | Previous Version | Text Only | Print | Product List | Glossary Off
Versions: 1 2 3 4 5 6 7 8 9 10 11 12 13 14 15 16 17 18 19 20 21 22 23 24 25 26 27 28 29 30 31 32 33 34 35 36 37 38 39 40 41 42 43 44 45 46 47 48 49 50

000
ASUS43 KIND 241709
RWRIN

WEATHER ROUNDUP FOR INDIANA
NATIONAL WEATHER SERVICE INDIANAPOLIS IN
100 PM EDT TUE MAY 24 2016

NOTE: "FAIR" INDICATES FEW OR NO CLOUDS BELOW 12,000 FEET WITH NO
SIGNIFICANT WEATHER AND/OR OBSTRUCTIONS TO VISIBILITY.

* - STATION DOES NOT REPORT WEATHER SUCH AS PRECIPITATION OR FOG.

+ - STATION NOT QUALITY CONTROLLED BY THE NATIONAL WEATHER SERVICE.
    USE DATA WITH CAUTION...ESPECIALLY DEWPOINT AND RELATIVE
    HUMIDITY OBSERVATIONS.

INZ001>003-010>013-019-020-241800-
NORTHWEST INDIANA

CITY           SKY/WX    TMP DP  RH WIND       PRES   REMARKS
GARY /AIRPORT/ MOSUNNY   82  59  44 SW12      30.01F
KNOX *+        MOSUNNY   81  32  17 SW3       30.02F
LA PORTE +     MOSUNNY   83  49  30 SW14G21   30.04S
MICHIGAN CITY+ MOSUNNY   81  52  36 SW8G16    30.02F
MONTICELLO +   MOSUNNY   82  40  22 SW9       30.04F HAZE
RENSSELAER +   MOSUNNY   82  43  24 SW13      30.03F
VALPARAISO     SUNNY     82  50  32 SW16G23   30.03F

$$

LMZ046-743>745-241800-
SOUTHERN LAKE MICHIGAN

STATION/POSITION TIME  TEMP    WIND        PRES    WAVE
                       AIR SEA DIR/SP/G            HT
                 (UTC) (F)     (DEG/KT/KT) (MB)    (FT)
BURNS HARBOR     1600   71     240/ 10/ 14 1016.9S
MICHIGAN CITY    1600   71     270/  3/  5   N/A
5NW MICH CITY    1700   73 58   CALM  /  2   N/A     0

$$

INZ004-005-014>016-021>024-241800-
NORTH CENTRAL INDIANA

CITY           SKY/WX    TMP DP  RH WIND       PRES   REMARKS
ELKHART        MOSUNNY   81  59  47 MISG      30.05S
GOSHEN         MOSUNNY   79  52  38 W13G24    30.05S
LOGANSPORT +   MOSUNNY   81  50  34 SW9G16    30.06F
PERU/GRISSOM   MOSUNNY   80  53  38 W7        30.04F
ROCHESTER +    MOSUNNY   81  52  36 SW9       30.06F
SOUTH BEND     MOSUNNY   79  52  38 SW7G17    30.04F
WARSAW +       CLOUDY    79  50  36 W6        30.06S

$$

INZ006>009-017-018-025>027-241800-
NORTHEAST INDIANA

CITY           SKY/WX    TMP DP  RH WIND       PRES   REMARKS
ANGOLA *+      SUNNY     81  54  39 SW8       30.05F
AUBURN +       MOSUNNY   79  45  29 SW7       30.07S
FORT WAYNE     PTSUNNY   80  47  31 W13       30.08S
HUNTINGTON +   SUNNY    N/A N/A N/A SW8       30.07S

$$

INZ028-029-035-036-043>045-051>053-241800-
WEST CENTRAL INDIANA

CITY           SKY/WX    TMP DP  RH WIND       PRES   REMARKS
CRAWFORDSVL +  SUNNY     79  52  39 SW9       30.07F
GREENCASTLE +  SUNNY     79  61  53 CALM      30.09S
LAFAYETTE      MOSUNNY   80  51  36 SW8G18    30.04F
TERRE HAUTE    SUNNY     81  55  40 SW9       30.07F

$$

INZ030>032-037>040-046>048-054>057-064-065-241800-
CENTRAL INDIANA

CITY           SKY/WX    TMP DP  RH WIND       PRES   REMARKS
ANDERSON       SUNNY     77  48  36 S8        30.11R
CP ATTERBURY + SUNNY     79  48  34 SW3       30.10S
COLUMBUS       SUNNY     77  48  36 SW8       30.11S
FISHERS *+     SUNNY     79  57  47 S9        30.08
FRANKFORT +      N/A     82  25  12 W9        30.08F
GREENWOOD *+   SUNNY     79  48  34 S7        30.10S
INDIANAPOLIS   PTSUNNY   78  52  40 SW7       30.08F
-EAGLE CREEK   SUNNY     79  50  36 W6        30.07F
KOKOMO *+      SUNNY     81  54  39 W8        30.06F
MARION +       SUNNY     80  46  30 SW7       30.08S
SHELBYVILLE    SUNNY     80  47  31 SW9       30.09S
ZIONSVILLE +   SUNNY     78  51  38 S8        30.08F

$$

INZ033-034-041-042-049-050-058-059-241800-
EAST CENTRAL INDIANA

CITY           SKY/WX    TMP DP  RH WIND       PRES   REMARKS
MUNCIE         SUNNY     80  44  27 W8        30.09S

$$

INZ060-061-067>069-081>083-085>088-241800-
SOUTHWEST INDIANA

CITY           SKY/WX    TMP DP  RH WIND       PRES   REMARKS
EVANSVILLE     CLOUDY    77  56  48 S10       30.10R
HUNTINGBURG *+ SUNNY     82  55  39 SW7       30.10S
WASHINGTON +   SUNNY     82  58  44 S8        30.08S

$$

INZ062-063-066-070>080-084-089>092-241800-
SOUTH CENTRAL AND SOUTHEAST INDIANA

CITY           SKY/WX    TMP DP  RH WIND       PRES   REMARKS
BEDFORD +      SUNNY     79  63  57 SW5       30.09F
BLOOMINGTON    SUNNY     80  54  40 S8        30.09S
MADISON *+     SUNNY     79  41  25 S7        30.13S
NORTH VERNON + SUNNY     79  54  41 CALM      30.11F
SEYMOUR +      SUNNY     81  50  34 SE6       30.10F

$$





USA.gov is the U.S. government's official web portal to all federal, state and local government web resources and services.